Home > Weather > Vadsø > Past weeks

Flag for Norway Past Weather in Vadsø, Norway — Yesterday and Last 2 Weeks

Now
59 °F

Broken clouds.


Feels Like: 58 °F
Forecast: 56 / 64 °F
Wind: 6 mph from Southeast

Location: Vadso

Current Time: Jun 30, 2016 at 2:14:31 PM

Latest Report: Jun 30, 2016 at 12:50 PM


Visibility: N/A

Pressure: 29.92 "Hg

Humidity: 88%

Dew Point: 55 °F

Location of VadsøLocation

Past Weather in Vadsø — Graph

°F

Vadsø Temperature Yesterday

Maximum temperature yesterday: 63 °F (at 11:50 AM)
Minimum temperature yesterday: 54 °F (at 9:50 PM)
Average temperature yesterday: 60 °F

High & Low Weather Summary for the Past Weeks

 TemperatureHumidityPressure
High70 °F (Jun 16, 2:50 PM)100% (Jun 22, 4:50 AM)30.12 "Hg (Jun 22, 4:50 AM)
Low43 °F (Jun 19, 8:50 PM)38% (Jun 16, 1:50 PM)29.62 "Hg (Jun 18, 9:50 AM)
Average54 °F77%29.92 "Hg
* Reported Jun 15 11:50 AM — Jun 30 11:50 AM, Vadsø, Weather by CustomWeather, © 2016

Note: Actual official high and low records may vary slightly from our data, if they occured in-between our weather recording intervals... More about our weather records

Advertising

Vadsø Weather History for the Previous 24 Hours

Scroll right to see more
 ConditionsComfort  
Time TempWeatherWind HumidityBarometerVisibility
11:50 AM
Thu, Jun 30
55 °FSprinkles. Partly sunny.6 mph100%29.95 "HgN/A
11:20 AM55 °FSprinkles. Partly sunny.6 mph100%29.95 "HgN/A
9:50 AM55 °FRain. Partly sunny.8 mph100%29.95 "HgN/A
9:20 AM55 °FRain. Partly sunny.8 mph100%29.95 "HgN/A
8:50 AM55 °FRain. Broken clouds.5 mph94%29.95 "HgN/A
7:50 AM55 °FRain. Broken clouds.9 mph94%29.95 "HgN/A
6:50 AM55 °FRain showers. Broken clouds.9 mph94%29.95 "HgN/A
5:50 AM55 °FScattered showers. Broken clouds.7 mph100%29.95 "HgN/A
4:50 AM55 °FBroken clouds.7 mph94%29.95 "HgN/A
3:20 AM54 °FRain showers. Partly sunny.6 mph94%29.98 "HgN/A
12:50 AM54 °FPartly sunny.8 mph94%29.98 "HgN/A
11:50 PM
Wed, Jun 29
54 °FPartly sunny.6 mph94%29.98 "HgN/A
10:50 PM54 °FScattered clouds.6 mph88%29.98 "HgN/A
9:50 PM54 °FPassing clouds.8 mph88%29.98 "HgN/A
8:50 PM57 °FPassing clouds.7 mph82%29.98 "HgN/A
7:50 PM59 °FPassing clouds.8 mph77%29.95 "HgN/A
6:50 PM63 °FScattered clouds.10 mph73%29.95 "HgN/A
5:50 PM63 °FScattered clouds.10 mph73%29.98 "HgN/A
4:50 PM63 °FScattered clouds.10 mph73%29.98 "HgN/A
3:50 PM63 °FScattered clouds.14 mph73%29.98 "HgN/A
2:20 PM61 °FPartly sunny.12 mph77%29.98 "HgN/A
Weather by CustomWeather, © 2016

See weather overviewHow to use our weather pages